Total_Precipitation_Accumulation
1.47 1.59 1.64 1.65 1.59 1.73 1.77 1.75 1.79 1.80 1.79 1.87 1.97 2.13 2.17 2.26 2.40 2.53 2.34 2.47 2.59 2.75 2.64 2.67 2.71 2.81 2.79 2.70 2.78 2.85 3.03 3.32 3.20 2.63 2.50 2.47 2.35 2.11 2.06 1.94 1.88 1.96 1.96
1.50 1.65 1.73 1.89 1.83 1.78 1.76 1.82 1.90 2.01 2.09 2.04 2.12 2.19 2.09 2.15 2.41 2.48 2.45 2.51 2.56 2.59 2.76 3.04 2.96 3.03 2.97 2.81 2.94 2.88 2.97 3.32 3.18 2.83 2.78 2.77 2.71 2.46 2.30 2.09 1.85 1.84 1.96
1.67 1.76 1.89 1.99 1.89 1.78 1.89 1.99 2.02 2.18 2.35 2.42 2.43 2.30 2.23 2.23 2.32 2.42 2.54 2.57 2.58 2.64 2.77 2.84 2.90 3.15 3.03 2.93 2.83 2.80 2.93 3.13 3.26 2.96 2.85 3.03 2.88 2.59 2.44 2.15 1.92 2.02 1.80
1.82 2.00 2.07 2.10 2.01 1.95 2.05 2.15 2.18 2.26 2.42 2.57 2.54 2.49 2.43 2.31 2.18 2.17 2.27 2.36 2.51 2.66 2.70 2.62 2.71 2.97 3.05 3.06 2.83 2.82 2.99 3.13 3.18 3.07 2.94 3.06 3.07 2.97 2.79 2.52 2.40 2.21 2.01
1.98 2.10 2.14 2.23 2.24 2.27 2.38 2.39 2.30 2.33 2.37 2.54 2.61 2.67 2.62 2.41 2.14 2.23 2.40 2.39 2.56 2.56 2.47 2.37 2.37 2.63 2.86 2.95 2.67 2.71 2.89 2.91 2.93 2.96 2.93 3.01 3.08 3.22 3.04 2.72 2.46 2.30 2.06
2.15 2.37 2.41 2.48 2.47 2.56 2.70 2.76 2.66 2.65 2.77 2.78 2.67 2.64 2.57 2.18 2.35 2.43 2.44 2.46 2.59 2.58 2.50 2.39 2.28 2.24 2.26 2.43 2.55 2.66 2.81 2.80 2.82 3.00 3.14 3.19 3.19 3.25 3.23 3.00 2.71 2.45 2.20
2.19 2.43 2.60 2.69 2.73 2.82 2.92 2.93 2.88 2.97 3.15 3.13 2.97 2.79 2.63 2.57 2.55 2.35 2.32 2.18 2.23 2.31 2.42 2.40 2.09 1.89 2.00 1.92 2.16 2.33 2.42 2.50 2.59 2.82 2.99 3.05 3.17 3.32 3.41 3.12 2.93 2.72 2.42
2.44 2.55 2.67 2.76 2.82 2.87 2.92 2.81 2.86 3.04 3.11 3.12 3.00 2.86 2.72 2.63 2.55 2.27 2.24 2.02 2.01 2.05 2.14 2.19 2.13 1.97 1.94 2.06 2.07 1.99 1.92 1.98 2.18 2.23 2.36 2.64 2.88 3.11 3.32 3.21 3.13 2.82 2.45
2.56 2.59 2.58 2.68 2.78 2.82 2.85 2.88 2.93 2.98 2.88 2.76 2.67 2.66 2.63 2.67 2.69 2.37 2.19 1.94 1.98 1.96 1.97 1.99 2.02 1.92 2.10 2.08 1.99 1.94 1.93 1.93 2.02 2.12 2.14 2.30 2.55 2.72 2.88 2.99 2.96 2.81 2.50
2.54 2.58 2.57 2.70 2.81 2.84 2.92 2.98 2.92 2.85 2.77 2.68 2.53 2.52 2.52 2.49 2.57 2.23 2.08 1.89 1.92 1.91 1.95 1.97 2.01 1.93 1.99 1.88 1.79 1.87 1.84 1.85 1.95 1.96 1.96 1.98 2.05 2.37 2.76 2.60 2.64 2.71 2.46
2.40 2.53 2.68 2.87 2.94 2.96 3.00 2.92 2.84 2.76 2.78 2.74 2.60 2.49 2.45 2.38 2.42 2.15 1.98 1.76 1.88 2.10 2.07 1.99 2.00 2.03 1.77 1.72 1.67 1.68 1.71 1.77 1.87 1.77 1.67 1.68 1.78 1.95 2.22 2.32 2.32 2.34 2.31
2.20 2.34 2.43 2.59 2.73 2.76 2.84 2.81 2.86 2.79 2.68 2.57 2.45 2.32 2.25 2.25 2.17 2.07 1.91 1.75 1.83 1.98 2.06 2.10 2.13 2.06 1.73 1.60 1.48 1.46 1.54 1.51 1.51 1.57 1.56 1.54 1.62 1.74 1.91 2.08 2.17 2.25 2.20
2.02 2.18 2.35 2.46 2.65 2.76 2.81 2.80 2.73 2.63 2.46 2.30 2.20 2.10 2.12 2.18 2.16 2.00 1.79 1.71 1.77 1.80 1.89 2.06 1.95 1.84 1.65 1.44 1.38 1.37 1.39 1.32 1.39 1.50 1.53 1.52 1.54 1.62 1.86 2.16 2.33 2.46 2.41
2.02 2.09 2.22 2.32 2.43 2.65 2.71 2.63 2.49 2.29 2.16 2.12 2.08 2.09 2.14 2.18 2.09 1.90 1.69 1.56 1.64 1.72 1.77 1.85 1.85 1.81 1.73 1.58 1.47 1.36 1.28 1.32 1.39 1.43 1.53 1.66 1.79 1.87 1.96 2.08 2.25 2.33 2.36
1.81 1.84 1.87 2.05 2.22 2.36 2.40 2.32 2.18 2.07 2.15 2.17 2.12 2.08 2.01 1.93 2.01 1.95 1.73 1.64 1.64 1.71 1.70 1.71 1.77 1.89 1.91 1.85 1.75 1.64 1.57 1.59 1.59 1.55 1.67 1.79 1.78 1.76 1.77 1.93 2.12 2.17 2.06
1.90 1.85 1.79 1.75 1.85 2.07 2.27 2.33 2.22 2.00 2.02 1.97 1.90 1.86 1.81 1.74 1.76 1.74 1.66 1.61 1.69 1.78 1.67 1.72 1.88 1.94 1.96 1.95 1.92 1.79 1.68 1.58 1.54 1.60 1.65 1.73 1.79 1.78 1.78 1.91 2.05 2.07 1.94
1.95 1.90 1.80 1.70 1.73 1.87 2.10 2.32 2.41 2.21 1.96 1.81 1.62 1.48 1.43 1.41 1.43 1.48 1.52 1.50 1.52 1.53 1.43 1.56 1.74 1.79 1.82 1.82 1.83 1.74 1.68 1.64 1.64 1.71 1.80 1.84 1.87 1.86 1.86 1.89 2.00 2.05 1.95
1.84 1.82 1.67 1.57 1.64 1.76 1.97 2.24 2.40 2.37 2.16 1.87 1.58 1.40 1.34 1.28 1.29 1.36 1.43 1.36 1.29 1.24 1.20 1.34 1.48 1.62 1.72 1.82 1.86 1.82 1.80 1.78 1.76 1.74 1.82 1.88 1.95 2.00 1.96 1.91 1.96 2.05 2.02
1.78 1.77 1.70 1.62 1.59 1.59 1.81 2.11 2.31 2.36 2.24 2.02 1.70 1.44 1.33 1.24 1.23 1.34 1.33 1.22 1.20 1.18 1.17 1.21 1.29 1.48 1.70 1.84 1.93 2.00 2.02 1.96 1.81 1.77 1.80 1.89 1.94 2.04 2.03 1.95 1.97 2.11 2.10
1.53 1.59 1.49 1.44 1.46 1.43 1.49 1.70 2.00 2.17 2.12 2.03 1.79 1.38 1.15 1.10 1.14 1.34 1.41 1.43 1.38 1.25 1.18 1.20 1.28 1.39 1.58 1.78 1.86 1.87 1.90 1.84 1.79 1.76 1.74 1.82 1.90 1.97 1.96 1.94 1.97 2.08 2.05
1.39 1.44 1.40 1.26 1.34 1.42 1.49 1.65 1.90 2.09 2.05 1.93 1.76 1.46 1.27 1.17 1.24 1.30 1.40 1.49 1.49 1.42 1.33 1.26 1.24 1.30 1.44 1.58 1.66 1.71 1.76 1.74 1.70 1.72 1.72 1.76 1.86 1.94 2.01 2.02 1.99 2.04 2.07
1.21 1.22 1.20 1.15 1.25 1.35 1.43 1.64 1.88 2.01 1.94 1.83 1.72 1.54 1.44 1.38 1.40 1.44 1.43 1.41 1.36 1.28 1.25 1.26 1.26 1.30 1.39 1.45 1.53 1.65 1.72 1.71 1.67 1.66 1.70 1.74 1.80 1.85 1.93 2.01 1.97 2.02 2.06
1.13 1.12 1.12 1.11 1.16 1.24 1.38 1.55 1.70 1.74 1.73 1.72 1.57 1.41 1.39 1.43 1.41 1.40 1.40 1.35 1.28 1.21 1.17 1.22 1.27 1.32 1.37 1.39 1.42 1.52 1.60 1.60 1.61 1.62 1.70 1.78 1.81 1.84 1.91 1.96 1.99 2.08 2.10
1.21 1.26 1.28 1.29 1.32 1.37 1.44 1.53 1.57 1.55 1.49 1.46 1.44 1.42 1.43 1.45 1.40 1.36 1.35 1.32 1.29 1.29 1.27 1.24 1.24 1.23 1.26 1.31 1.33 1.34 1.40 1.42 1.41 1.44 1.52 1.63 1.72 1.75 1.79 1.85 1.90 1.95 2.01
1.14 1.26 1.31 1.36 1.41 1.45 1.50 1.52 1.50 1.47 1.38 1.34 1.33 1.35 1.34 1.31 1.35 1.37 1.34 1.30 1.27 1.23 1.16 1.14 1.14 1.10 1.07 1.07 1.06 1.08 1.20 1.20 1.14 1.16 1.24 1.41 1.50 1.54 1.58 1.68 1.78 1.86 1.92
1.04 1.12 1.24 1.26 1.29 1.37 1.46 1.53 1.49 1.42 1.33 1.29 1.30 1.31 1.28 1.26 1.27 1.27 1.26 1.27 1.27 1.25 1.21 1.17 1.08 1.06 1.05 1.04 1.03 1.08 1.08 0.99 0.96 1.01 1.03 1.15 1.33 1.42 1.51 1.59 1.66 1.83 1.90